Weather History for Garden City, KS

Change the Weather History Date:

Monday, August 12, 2013

  Actual Average Record
Temperature  
Mean Temperature 75 °F 77 °F  
Max Temperature 88 °F 90 °F 107 °F (1969)
Min Temperature 61 °F 65 °F 53 °F (1979)
Degree Days  
Heating Degree Days 0 0  
Month to date heating degree days 0 0  
Since 1 June heating degree days 12 17  
Since 1 July heating degree days 0 1  
Cooling Degree Days 10 12  
Month to date cooling degree days 120 155  
Year to date cooling degree days 1102 906  
Since 1 June cooling degree days 955 817  
Growing Degree Days 24 (Base 50)    
Moisture  
Dew Point 64 °F    
Average Humidity 70    
Maximum Humidity 93    
Minimum Humidity 46    
Precipitation  
Precipitation 1.42 in 0.08 in 1.42 in (2013)
Month to date precipitation 4.37 1.12  
Year to date precipitation 9.61 14.32  
Sea Level Pressure  
Sea Level Pressure 30.01 in    
Wind  
Wind Speed 8 mph (ESE)    
Max Wind Speed 25 mph    
Max Gust Speed 36 mph    
Visibility 8 miles    
Events Fog , Rain , Thunderstorm    
T = Trace of Precipitation, MM = Missing Value Source: NWS Daily Summary

Daily Weather History Graph

Daily Weather History Graph

Search for Another Location

Airport:

Trip Planner

Search our weather history database for the weather conditions in past years. The results will help you decide how hot, cold, wet, or windy it might be!

Date:

Astronomy

Aug. 12, 2013 Rise Set
Actual Time 6:55 AM CDT 8:39 PM CDT
Civil Twilight 6:27 AM CDT 9:07 PM CDT
Nautical Twilight 5:53 AM CDT 9:41 PM CDT
Astronomical Twilight 5:16 AM CDT 10:17 PM CDT
Moon 12:41 PM CDT (8/12) 11:40 PM CDT (8/12)
Length of Visible Light 14h 39m
Length of Day
13h 43m
Waxing Crescent, 31% of the Moon is Illuminated
Aug 12
Waxing Crescent
Aug 14
First Quarter
Aug 20
Full
Aug 28
Last Quarter
Sep 5
New

Hourly Weather History & Observations

Time (CDT) Temp. Heat Index Dew Point Humidity Pressure Visibility Wind Dir Wind Speed Gust Speed Precip Events Conditions
12:54 AM 69.1 °F - 60.1 °F 73% 29.99 in 10.0 mi South 6.9 mph - N/A   Clear
1:54 AM 66.0 °F - 60.1 °F 81% 29.98 in 10.0 mi South 5.8 mph - N/A   Clear
2:54 AM 64.9 °F - 61.0 °F 87% 29.98 in 10.0 mi SSW 4.6 mph - N/A   Clear
3:54 AM 64.0 °F - 61.0 °F 90% 29.97 in 10.0 mi West 4.6 mph - N/A   Clear
4:54 AM 63.0 °F - 60.1 °F 90% 29.97 in 10.0 mi South 5.8 mph - N/A   Clear
5:54 AM 63.0 °F - 60.1 °F 90% 29.97 in 10.0 mi South 5.8 mph - N/A   Clear
6:54 AM 62.1 °F - 60.1 °F 93% 29.97 in 9.0 mi South 6.9 mph - N/A   Clear
7:54 AM 64.0 °F - 61.0 °F 90% 29.98 in 8.0 mi SSW 3.5 mph - N/A   Clear
8:54 AM 69.1 °F - 63.0 °F 81% 29.97 in 10.0 mi WSW 9.2 mph - N/A   Clear
9:54 AM 71.1 °F - 63.0 °F 75% 29.98 in 10.0 mi Variable 3.5 mph - N/A   Clear
10:54 AM 75.0 °F - 64.0 °F 69% 29.98 in 10.0 mi NW 5.8 mph - N/A   Clear
11:54 AM 81.0 °F 82.5 °F 64.0 °F 56% 29.98 in 10.0 mi North 10.4 mph - N/A   Clear
12:54 PM 82.9 °F 84.4 °F 64.0 °F 53% 29.99 in 10.0 mi NE 8.1 mph - N/A   Clear
1:54 PM 84.0 °F 86.3 °F 66.0 °F 55% 29.99 in 10.0 mi NE 10.4 mph - N/A   Clear
2:54 PM 84.9 °F 86.6 °F 64.9 °F 51% 29.98 in 10.0 mi ENE 8.1 mph - N/A   Clear
3:54 PM 87.1 °F 88.9 °F 64.9 °F 48% 29.96 in 10.0 mi ENE 5.8 mph - N/A   Clear
4:54 PM 87.1 °F 88.3 °F 64.0 °F 46% 29.94 in 10.0 mi East 6.9 mph - N/A   Clear
5:54 PM 87.1 °F 88.3 °F 64.0 °F 46% 29.91 in 10.0 mi ENE 10.4 mph - N/A   Clear
6:54 PM 84.9 °F 85.9 °F 63.0 °F 48% 29.93 in 10.0 mi ENE 9.2 mph - N/A   Clear
7:54 PM 82.0 °F 84.1 °F 66.0 °F 58% 29.93 in 10.0 mi ENE 8.1 mph - N/A   Clear
8:54 PM 79.0 °F - 66.9 °F 66% 29.93 in 10.0 mi ENE 8.1 mph - N/A   Scattered Clouds
9:12 PM 78.8 °F - 66.2 °F 65% 30.02 in 10.0 mi ENE 9.2 mph - N/A Thunderstorm Scattered Clouds
9:49 PM 69.8 °F - 64.4 °F 83% 30.07 in 10.0 mi WSW 10.4 mph 28.8 mph N/A Thunderstorm Thunderstorm
9:54 PM 70.0 °F - 64.9 °F 84% 30.00 in 9.0 mi East 12.7 mph 24.2 mph 0.01 in Rain , Thunderstorm Light Thunderstorms and Rain
10:03 PM 68.0 °F - 64.4 °F 88% 30.12 in 1.5 mi SSE 10.4 mph 35.7 mph 0.29 in Rain , Thunderstorm Heavy Thunderstorms and Rain
10:09 PM 69.8 °F - 66.2 °F 88% 30.11 in 0.5 mi Variable 6.9 mph 33.4 mph 0.65 in Fog , Rain , Thunderstorm Heavy Thunderstorms and Rain
10:16 PM 66.2 °F - 66.2 °F 100% 30.12 in 0.5 mi East 12.7 mph 20.7 mph 0.97 in Fog , Rain , Thunderstorm Heavy Thunderstorms and Rain
10:25 PM 66.2 °F - 66.2 °F 100% 30.11 in 1.0 mi North 8.1 mph - 1.20 in Rain , Thunderstorm Heavy Thunderstorms and Rain
10:32 PM 66.2 °F - 66.2 °F 100% 30.11 in 2.0 mi West 10.4 mph - 1.23 in Rain , Thunderstorm Thunderstorms and Rain
10:43 PM 66.2 °F - 64.4 °F 94% 30.11 in 3.0 mi WSW 8.1 mph - 1.27 in Rain , Thunderstorm Thunderstorms and Rain
10:54 PM 66.9 °F - 64.9 °F 93% 30.04 in 8.0 mi ESE 10.4 mph - 1.28 in Rain , Thunderstorm Light Thunderstorms and Rain
11:03 PM 66.2 °F - 64.4 °F 94% 30.13 in 7.0 mi ENE 8.1 mph - 0.01 in Rain , Thunderstorm Light Rain